Home > Weather > Alexandria > Past weeks

Flag for Egypt Weather for the Past 2 Weeks in Alexandria, Egypt

Now
59 °F

Broken clouds.


Feels Like: 58 °F
Forecast: 54 / 58 °F
Wind: 7 mph from North

Location: Alexandria / Nouzha

Current Time: Feb 9, 2016 at 5:53:24 PM

Latest Report: Feb 9, 2016 at 4:00 PM


Visibility: N/A

Pressure: 30.15 "Hg

Humidity: 55%

Dew point: 43 °F

Location of AlexandriaLocation

Historic Weather in Alexandria — Graph

°F

Alexandria Temperature Yesterday

Maximum temperature yesterday: 59 °F (at 11:00 AM)
Minimum temperature yesterday: 54 °F (at 1:00 AM)
Average temperature yesterday: 57 °F

High & Low Weather Summary for the Past Weeks

 TemperatureHumidityPressure
High68 °F (Feb 4, 1:00 PM)94% (Jan 30, 5:00 AM)30.45 "Hg (Jan 30, 5:00 AM)
Low45 °F (Jan 26, 3:00 AM)43% (Feb 5, 10:00 PM)29.92 "Hg (Feb 5, 6:00 AM)
Average56 °F72%30.21 "Hg
* Reported Jan 25 4:00 PM — Feb 9 4:00 PM, Alexandria, Weather by CustomWeather, © 2016

Note: Actual official high and low records may vary slightly from our data, if they occured in-between our weather recording intervals... More about our weather records

Advertising

Alexandria Weather History for the Previous 24 Hours

 ConditionsComfort  
Time TempWeatherWind HumidityBarometerVisibility
4:00 PM
Tue, Feb 9
59 °FBroken clouds.7 mph55%30.15 "HgN/A
3:00 PM59 °FBroken clouds.2 mph55%30.15 "HgN/A
2:00 PM61 °FBroken clouds.2 mph55%30.15 "HgN/A
12:00 PM59 °FBroken clouds.1 mph51%30.21 "HgN/A
11:00 AM57 °FBroken clouds.1 mph59%30.21 "HgN/A
10:00 AM57 °FScattered clouds.3 mph67%30.24 "HgN/A
9:00 AM55 °FScattered clouds.2 mph77%30.24 "HgN/A
8:00 AM54 °FScattered clouds.2 mph77%30.21 "HgN/A
7:00 AM54 °FScattered clouds.1 mph77%30.21 "HgN/A
6:00 AM54 °FPassing clouds.1 mph77%30.21 "HgN/A
5:00 AM54 °FPassing clouds.3 mph77%30.21 "HgN/A
4:00 AM54 °FPassing clouds.1 mph72%30.21 "HgN/A
3:00 AM54 °FPassing clouds.2 mph77%30.21 "HgN/A
2:00 AM54 °FPassing clouds.2 mph77%30.24 "HgN/A
1:00 AM54 °FPassing clouds.2 mph77%30.24 "HgN/A
12:00 AM54 °FPassing clouds.2 mph67%30.24 "HgN/A
11:00 PM
Mon, Feb 8
55 °FPassing clouds.2 mph59%30.24 "HgN/A
10:00 PM57 °FPassing clouds.1 mph51%30.24 "HgN/A
9:00 PM57 °FPassing clouds.3 mph48%30.24 "HgN/A
8:00 PM57 °FPassing clouds.7 mph48%30.24 "HgN/A
7:00 PM57 °FPassing clouds.8 mph48%30.21 "HgN/A
6:00 PM57 °FPassing clouds.7 mph55%30.21 "HgN/A
5:00 PM57 °FScattered clouds.6 mph55%30.18 "HgN/A
Weather by CustomWeather, © 2016

See weather overviewHow to use our weather pages